Home   Weather   Iasi   Past weeks

Flag for Romania Past Weather in Iasi, Romania — Yesterday and Last 2 Weeks

48 °F


Feels Like: 45 °F
Forecast: 44 / 53 °F
Wind: 7 mph from Southeast

Location: Iasi Airport

Current Time: Oct 24, 2016 at 7:09:54 PM

Latest Report: Oct 24, 2016 at 6:30 PM

Visibility: N/A

Pressure: 30.45 "Hg

Humidity: 66%

Dew Point: 37 °F

Location of IasiLocation

Past Weather in Iasi — Graph


Iasi Temperature Yesterday

Maximum temperature yesterday: 50 °F (at 12:00 PM)
Minimum temperature yesterday: 48 °F (at 12:00 AM)
Average temperature yesterday: 48 °F

High & Low Weather Summary for the Past Weeks

High59 °F (Oct 10, 2:00 PM)94% (Oct 23, 11:30 AM)30.66 "Hg (Oct 23, 11:30 AM)
Low28 °F (Oct 17, 8:00 AM)34% (Oct 10, 5:30 PM)29.71 "Hg (Oct 13, 4:00 AM)
Average44 °F76%30.24 "Hg
* Reported Oct 9 6:00 PM — Oct 24 6:00 PM, Iasi, Weather by CustomWeather, © 2016

Note: Actual official high and low records may vary slightly from our data, if they occured in-between our weather recording intervals... More about our weather records


Iasi Weather History for the Previous 24 Hours

Scroll right to see more
Time TempWeatherWind HumidityBarometerVisibility
6:00 PM
Mon, Oct 24
48 °FOvercast.9 mph66%30.42 "HgN/A
5:30 PM48 °FOvercast.13 mph66%30.42 "HgN/A
5:00 PM48 °FOvercast.14 mph66%30.42 "HgN/A
4:30 PM48 °FOvercast.13 mph66%30.42 "HgN/A
4:00 PM48 °FOvercast.14 mph66%30.42 "HgN/A
3:30 PM50 °FOvercast.14 mph67%30.42 "HgN/A
3:00 PM48 °FOvercast.12 mph71%30.42 "HgN/A
2:30 PM48 °FOvercast.13 mph71%30.42 "HgN/A
2:00 PM48 °FMore clouds than sun.12 mph71%30.42 "HgN/A
1:30 PM46 °FMore clouds than sun.10 mph76%30.42 "HgN/A
1:00 PM46 °FMore clouds than sun.13 mph71%30.42 "HgN/A
12:30 PM45 °FOvercast.13 mph76%30.45 "HgN/A
12:00 PM45 °FOvercast.10 mph76%30.45 "HgN/A
11:30 AM43 °FOvercast.12 mph81%30.45 "HgN/A
11:00 AM43 °FOvercast.13 mph81%30.45 "HgN/A
10:30 AM43 °FOvercast.15 mph81%30.42 "HgN/A
10:00 AM43 °FOvercast.15 mph81%30.42 "HgN/A
9:30 AM43 °FOvercast.14 mph81%30.42 "HgN/A
9:00 AM43 °FOvercast.14 mph81%30.42 "HgN/A
8:30 AM43 °FOvercast.14 mph81%30.42 "HgN/A
8:00 AM43 °FOvercast.13 mph87%30.42 "HgN/A
7:30 AM43 °FOvercast.13 mph87%30.39 "HgN/A
7:00 AM43 °FOvercast.13 mph87%30.39 "HgN/A
6:30 AM43 °FOvercast.13 mph87%30.39 "HgN/A
6:00 AM43 °FOvercast.13 mph87%30.39 "HgN/A
5:30 AM43 °FOvercast.13 mph87%30.39 "HgN/A
5:00 AM43 °FLight rain. Low clouds.14 mph87%30.39 "Hg4 mi
4:00 AM43 °FLight rain. Partly cloudy.12 mph87%30.36 "Hg4 mi
3:00 AM43 °FLight rain. Fog.15 mph87%30.36 "Hg3 mi
2:00 AM45 °FOvercast.15 mph81%30.36 "HgN/A
1:00 AM46 °FLight rain. Mostly cloudy.16 mph76%30.36 "HgN/A
12:00 AM46 °FLight rain. Overcast.14 mph82%30.36 "HgN/A
11:00 PM
Sun, Oct 23
48 °FMostly cloudy.16 mph76%30.33 "HgN/A
10:00 PM48 °FOvercast.14 mph76%30.33 "HgN/A
9:00 PM48 °FPartly cloudy.13 mph82%30.30 "HgN/A
8:30 PM48 °FPartly cloudy.12 mph82%30.30 "HgN/A
8:00 PM48 °FPartly cloudy.13 mph82%30.30 "HgN/A
7:30 PM48 °FOvercast.12 mph82%30.30 "HgN/A
7:00 PM48 °FOvercast.12 mph82%30.30 "HgN/A
Weather by CustomWeather, © 2016

See weather overviewHow to use our weather pages